Flag Weather past 2 weeks in Kashgar, Xinjiang, China

Now
45 °F

Fog.


Feels Like: 40 °F
Forecast: 41 / 45 °F
Wind: 8 mph from East

Location: Kashi Airport

Current Time: Oct 31, 2014 at 2:35:26 PM

Latest Report: Oct 31, 2014 at 2:00 PM


Visibility: 2 mi

Pressure: 30.48 "Hg

Humidity: 76%

Dew point: 37 °F

Location of KashgarLocation

Historic Weather in Kashgar — Graph

°F

Kashgar temperature yesterday

Maximum temperature yesterday: 52 °F (at 5:00 PM)
Minimum temperature yesterday: 41 °F (at 6:00 AM)
Average temperature yesterday: 45 °F

Past Weeks' High & Low Weather Summary

 TemperatureHumidityPressure
High73 °F (Oct 22, 4:00 PM)100% (Oct 31, 11:00 AM)30.45 "Hg (Oct 31, 11:00 AM)
Low36 °F (Oct 31, 9:00 AM)10% (Oct 28, 2:00 PM)29.86 "Hg (Oct 27, 5:00 PM)
Average58 °F34%30.11 "Hg
* Reported Oct 16 1:00 PM — Oct 31 1:00 PM, Kashgar, Weather by CustomWeather, © 2014

Note: Actual official high and low records may vary slightly from our data, if they occured in-between our weather recording intervals... More about our weather records

Advertising

Kashgar weather history for previous 24 hours

 ConditionsComfort  
Time TempWeatherWind HumidityBarometerVisibility
1:00 PM
Oct 31
43 °FFog.8 mph87%30.45 "Hg2 mi
12:00 PM43 °FFog.3 mph81%30.45 "Hg2 mi
11:00 AM37 °FFog.3 mph100%30.42 "Hg3 mi
10:00 AM36 °FFog.6 mph93%30.39 "Hg1 mi
9:00 AM36 °FFog.No wind93%30.36 "Hg1 mi
8:00 AM37 °FDuststorm.No wind87%30.33 "Hg2 mi
7:00 AM37 °FDuststorm.1 mph87%30.30 "Hg2 mi
6:00 AM37 °FDuststorm.8 mph87%30.30 "Hg2 mi
5:00 AM39 °FDuststorm.No wind87%30.30 "Hg2 mi
4:00 AM39 °FFog.1 mph93%30.30 "Hg2 mi
3:00 AM41 °FFog.No wind87%30.30 "Hg2 mi
2:00 AM41 °FFog.3 mph87%30.30 "Hg2 mi
1:00 AM41 °FFog.3 mph93%30.30 "Hg2 mi
12:00 AM43 °FFog.1 mph87%30.30 "Hg3 mi
11:00 PM
Oct 30
45 °FDuststorm.3 mph81%30.30 "Hg2 mi
10:00 PM45 °FDuststorm.1 mph81%30.27 "Hg2 mi
9:00 PM46 °FDuststorm.3 mph76%30.27 "Hg2 mi
8:00 PM48 °FDuststorm.6 mph71%30.24 "Hg2 mi
7:00 PM50 °FDuststorm.8 mph67%30.24 "Hg2 mi
6:00 PM50 °FDuststorm.8 mph67%30.24 "Hg3 mi
5:00 PM52 °FDuststorm.6 mph58%30.24 "Hg2 mi
4:00 PM50 °FDuststorm.3 mph62%30.24 "Hg2 mi
3:00 PM50 °FDuststorm.3 mph62%30.27 "Hg2 mi
2:00 PM48 °FScattered clouds.1 mph66%30.30 "Hg2 mi
Weather by CustomWeather, © 2014

See weather overviewHow to use our weather pages